カタログに戻る

KUIPER-00205

運用中通信LEO
NORAD 67774·PAYLOAD·🇺🇸 United States

打ち上げ Feb 12, 2026 から Guiana Space Centre

Loading…

次のパス (今後24時間)

TLE

最新Source: CelesTrak SupGP

元期: Sep 14, 2026, 23:30 UTC

1 67774C 26030L   26257.97962963  .00005499  00000+0  72005-3 0  2575
2 67774  51.8999  66.0603 0000631 100.4720 129.1624 14.79914427    13

AllMySatでKUIPER-00205をリアルタイム追跡

Download on the App Store